| time (UTC) | temp C | wind direction | speed KPH | gust KPH | rain 1hr cm | rain 24hr cm | rain mn cm | humidity % | barometer mb |
| 20260505121537 | -17 | 0.0 | 0.0 | 0.00 | 0.00 | 0.00 | 1008.2 | ||
| 20260505120054 | -17 | 0.0 | 0.0 | 0.00 | 0.00 | 0.00 | 1008.1 | ||
| 20260505114523 | -17 | 0.0 | 0.0 | 0.00 | 0.00 | 0.00 | 1008.1 | ||
| 20260505113020 | -17 | 0.0 | 0.0 | 0.00 | 0.00 | 0.00 | 1008.1 | ||
| 20260505111516 | 17 | 127 | 6.4 | 9.7 | 0.00 | 0.00 | 0.00 | 65 | 1008.1 |
| 20260505101516 | 18 | 95 | 3.2 | 9.7 | 0.00 | 0.00 | 0.00 | 61 | 1008.7 |
| 20260505100004 | 18 | 141 | 0.0 | 11.3 | 0.00 | 0.00 | 0.00 | 61 | 1009.0 |
| 20260505094501 | 18 | 96 | 1.6 | 8.0 | 0.00 | 0.00 | 0.00 | 63 | 1009.0 |
| 20260505093002 | 18 | 101 | 1.6 | 11.3 | 0.00 | 0.00 | 0.00 | 63 | 1009.1 |
| 20260505091605 | 18 | 111 | 1.6 | 11.3 | 0.00 | 0.00 | 0.00 | 62 | 1009.2 |
| 20260505090055 | 18 | 154 | 4.8 | 16.1 | 0.00 | 0.00 | 0.00 | 61 | 1009.2 |
| 20260505084552 | 18 | 144 | 0.0 | 12.9 | 0.00 | 0.00 | 0.00 | 58 | 1009.5 |
| 20260505083051 | 19 | 290 | 3.2 | 11.3 | 0.00 | 0.00 | 0.00 | 54 | 1009.3 |
| 20260505081544 | 20 | 37 | 3.2 | 12.9 | 0.00 | 0.00 | 0.00 | 50 | 1009.5 |
| 20260505080041 | 20 | 181 | 3.2 | 17.7 | 0.00 | 0.00 | 0.00 | 44 | 1009.7 |
| 20260505074540 | 20 | 190 | 3.2 | 16.1 | 0.00 | 0.00 | 0.00 | 44 | 1009.7 |
| 20260505073057 | 20 | 302 | 1.6 | 9.7 | 0.00 | 0.00 | 0.00 | 43 | 1009.5 |
| 20260505071535 | 20 | 201 | 3.2 | 9.7 | 0.00 | 0.00 | 0.00 | 42 | 1009.6 |
| 20260505070035 | 21 | 282 | 4.8 | 16.1 | 0.00 | 0.00 | 0.00 | 39 | 1009.6 |
| 20260505064540 | 21 | 259 | 3.2 | 12.9 | 0.00 | 0.00 | 0.00 | 37 | 1009.4 |
| 20260505063031 | 21 | 177 | 4.8 | 8.0 | 0.00 | 0.00 | 0.00 | 33 | 1009.1 |
| 20260505061540 | 21 | 269 | 1.6 | 9.7 | 0.00 | 0.00 | 0.00 | 30 | 1008.9 |
| 20260505060024 | 21 | 278 | 3.2 | 9.7 | 0.00 | 0.00 | 0.00 | 32 | 1008.7 |
| 20260505054539 | 22 | 220 | 3.2 | 11.3 | 0.00 | 0.00 | 0.00 | 31 | 1008.8 |
| 20260505053025 | 22 | 217 | 0.0 | 6.4 | 0.00 | 0.00 | 0.00 | 31 | 1009.2 |
| 20260505051520 | 22 | 218 | 1.6 | 9.7 | 0.00 | 0.00 | 0.00 | 33 | 1009.4 |
| 20260505050118 | 22 | 267 | 1.6 | 6.4 | 0.00 | 0.00 | 0.00 | 43 | 1009.5 |
| 20260505041515 | 22 | 259 | 0.0 | 1.6 | 0.00 | 0.00 | 0.00 | 44 | 1008.9 |
| 20260505040013 | 22 | 277 | 0.0 | 3.2 | 0.00 | 0.00 | 0.00 | 44 | 1009.0 |
| 20260505034511 | 22 | 333 | 0.0 | 0.0 | 0.00 | 0.00 | 0.00 | 44 | 1008.7 |
| 20260505033012 | 22 | 321 | 0.0 | 3.2 | 0.00 | 0.00 | 0.00 | 43 | 1008.4 |
| 20260505031548 | 22 | 276 | 0.0 | 3.2 | 0.00 | 0.00 | 0.00 | 42 | 1008.1 |
| 20260505030037 | 22 | 262 | 0.0 | 4.8 | 0.00 | 0.00 | 0.00 | 41 | 1008.0 |
| 20260505024540 | 22 | 255 | 0.0 | 6.4 | 0.00 | 0.00 | 0.00 | 39 | 1008.0 |
| 20260505023033 | 23 | 298 | 0.0 | 3.2 | 0.00 | 0.00 | 0.00 | 40 | 1007.9 |
| 20260505021530 | 23 | 314 | 0.0 | 3.2 | 0.00 | 0.00 | 0.00 | 40 | 1007.8 |
| 20260505020032 | 23 | 286 | 0.0 | 3.2 | 0.00 | 0.00 | 0.00 | 39 | 1007.8 |
| 20260505014534 | 23 | 281 | 0.0 | 4.8 | 0.00 | 0.00 | 0.00 | 40 | 1007.5 |
| 20260505013027 | 23 | 32 | 0.0 | 4.8 | 0.00 | 0.00 | 0.00 | 39 | 1007.4 |
| 20260505011532 | 24 | 281 | 1.6 | 6.4 | 0.00 | 0.00 | 0.00 | 38 | 1007.4 |
| 20260505010026 | 24 | 65 | 0.0 | 4.8 | 0.00 | 0.00 | 0.00 | 38 | 1007.5 |
| 20260505004623 | 24 | 272 | 0.0 | 3.2 | 0.00 | 0.00 | 0.00 | 37 | 1007.6 |
| 20260505003053 | 24 | 267 | 0.0 | 4.8 | 0.00 | 0.00 | 0.00 | 37 | 1007.6 |
| 20260505001555 | 24 | 263 | 1.6 | 6.4 | 0.00 | 0.00 | 0.00 | 37 | 1007.7 |
| 20260505000106 | 24 | 280 | 0.0 | 9.7 | 0.00 | 0.00 | 0.00 | 39 | 1008.0 |
| 20260504234547 | 24 | 267 | 0.0 | 6.4 | 0.00 | 0.00 | 0.00 | 38 | 1008.0 |
| 20260504233046 | 24 | 276 | 0.0 | 4.8 | 0.00 | 0.00 | 0.00 | 39 | 1007.7 |
| 20260504231546 | 24 | 288 | 1.6 | 6.4 | 0.00 | 0.00 | 0.00 | 38 | 1007.8 |
| 20260504230015 | 25 | 47 | 0.0 | 6.4 | 0.00 | 0.00 | 0.00 | 37 | 1007.8 |
| 20260504224515 | 24 | 289 | 1.6 | 8.0 | 0.00 | 0.00 | 0.00 | 37 | 1008.0 |
| 20260504223042 | 25 | 281 | 0.0 | 4.8 | 0.00 | 0.00 | 0.00 | 38 | 1008.2 |
| 20260504221551 | 24 | 299 | 3.2 | 11.3 | 0.00 | 0.00 | 0.00 | 38 | 1008.3 |
| 20260504220038 | 24 | 290 | 1.6 | 6.4 | 0.00 | 0.00 | 0.00 | 39 | 1008.2 |
| 20260504214536 | 24 | 285 | 1.6 | 8.0 | 0.00 | 0.00 | 0.00 | 40 | 1008.5 |
| 20260504213041 | 24 | 292 | 3.2 | 9.7 | 0.00 | 0.00 | 0.00 | 39 | 1008.9 |
| 20260504211531 | 25 | 288 | 1.6 | 9.7 | 0.00 | 0.00 | 0.00 | 39 | 1009.3 |
| 20260504210028 | 25 | 312 | 3.2 | 14.5 | 0.00 | 0.00 | 0.00 | 39 | 1009.1 |
| 20260504204528 | 25 | 245 | 3.2 | 14.5 | 0.00 | 0.00 | 0.00 | 37 | 1009.1 |
| 20260504203028 | 25 | 276 | 1.6 | 11.3 | 0.00 | 0.00 | 0.00 | 39 | 1009.0 |
| 20260504201524 | 24 | 279 | 4.8 | 11.3 | 0.00 | 0.00 | 0.00 | 38 | 1009.0 |
| 20260504200020 | 24 | 283 | 0.0 | 12.9 | 0.00 | 0.00 | 0.00 | 41 | 1009.1 |
| 20260504194519 | 24 | 315 | 1.6 | 11.3 | 0.00 | 0.00 | 0.00 | 41 | 1009.0 |
| 20260504193018 | 24 | 269 | 4.8 | 14.5 | 0.00 | 0.00 | 0.00 | 40 | 1009.6 |
| 20260504191516 | 24 | 286 | 1.6 | 9.7 | 0.00 | 0.00 | 0.00 | 41 | 1009.4 |
| 20260504190012 | 23 | 287 | 0.0 | 9.7 | 0.00 | 0.00 | 0.00 | 42 | 1009.0 |
| 20260504184511 | 23 | 278 | 0.0 | 8.0 | 0.00 | 0.00 | 0.00 | 44 | 1009.1 |
| 20260504183007 | 23 | 218 | 3.2 | 12.9 | 0.00 | 0.00 | 0.00 | 44 | 1009.5 |
| 20260504181504 | 23 | 304 | 4.8 | 17.7 | 0.00 | 0.00 | 0.00 | 44 | 1009.9 |
| 20260504180032 | 23 | 357 | 1.6 | 8.0 | 0.00 | 0.00 | 0.00 | 46 | 1009.5 |
| 20260504174530 | 23 | 271 | 1.6 | 9.7 | 0.00 | 0.00 | 0.00 | 44 | 1009.1 |
| 20260504173028 | 24 | 127 | 1.6 | 11.3 | 0.00 | 0.00 | 0.00 | 33 | 1008.9 |
| 20260504171527 | 24 | 203 | 3.2 | 14.5 | 0.00 | 0.00 | 0.00 | 33 | 1009.2 |